Location: Austin
(30.3000°N, 97.7500°W)
Time: 06:06:52
(UTC-06:00)

PSLV R/B - Pass Details

Date: 03 March 2026
Orbit: 559 x 588 km, 98.0° (Epoch: 6 March)

Event Time Altitude Azimuth Distance (km) Brightness Sun altitude
Rises 19:07:36 0° 154° (SSE) 2,761 6.7 -8.6°
Reaches altitude 10° 19:09:48 10° 148° (SSE) 1,863 5.7 -9.1°
Maximum altitude 19:13:39 46° 75° (ENE) 768 3.6 -9.9°
Drops below altitude 10° 19:17:30 10° 2° (N) 1,858 6.0 -10.7°
Sets 19:19:41 0° 356° (N) 2,754 6.9 -11.2°
